User: anonymous   Login
Location: ????????
(54.9045°N, 39.1041°E)
Time: 19:38:53
(UTC+00:00)
Language:

BREEZE-M DEB (TANK) - Orbit

View from above orbital plane
View from above orbital plane
View from above satellite
View from above satellite

Ground track
Ground track

The orbit data is extracted from the following two-line orbital elements,

1 28116U 03056E   24165.46248802  .00006180  00000-0  10727-2 0  9998
2 28116  52.8328 158.1985 5728720 106.9781 320.6891  4.45691967325367
Epoch (UTC): 13 June 2024 11:05:58
Eccentricity: 0.5728720
inclination: 52.8328°
perigee height: 284 km
apogee height: 18154 km
right ascension of ascending node: 158.1985°
argument of perigee: 106.9781°
revolutions per day: 4.45691967
mean anomaly at epoch: 320.6891°
orbit number at epoch: 32536

The dashed part of the orbit path shows where the satellite is in the earth's shadow,  

DLR